Weather History for Parkersburg, WV

Change the Weather History Date:

Thursday, July 11, 2013

  Actual Average Record
Temperature  
Mean Temperature 72 °F 74 °F  
Max Temperature 80 °F 85 °F 100 °F (1936)
Min Temperature 64 °F 64 °F 51 °F (1999)
Degree Days  
Heating Degree Days 0 0  
Month to date heating degree days 0 0  
Since 1 June heating degree days 6 19  
Cooling Degree Days 7 10  
Month to date cooling degree days 116 102  
Year to date cooling degree days 428 377  
Since 1 June cooling degree days 302 293  
Growing Degree Days 22 (Base 50)    
Moisture  
Dew Point 65 °F    
Average Humidity 78    
Maximum Humidity 93    
Minimum Humidity 62    
Precipitation  
Precipitation 0.12 in 0.14 in 1.54 in (2000)
Month to date precipitation 5.00 1.42  
Year to date precipitation 23.73 22.39  
Sea Level Pressure  
Sea Level Pressure 30.00 in    
Wind  
Wind Speed 3 mph (NNW)    
Max Wind Speed 12 mph    
Max Gust Speed 35 mph    
Visibility 7 miles    
Events Rain    
T = Trace of Precipitation, MM = Missing Value Source: NWS Daily Summary

Daily Weather History Graph

Daily Weather History Graph

Search for Another Location

Airport:

Trip Planner

Search our weather history database for the weather conditions in past years. The results will help you decide how hot, cold, wet, or windy it might be!

Date:

Astronomy

Jul. 11, 2013 Rise Set
Actual Time 6:08 AM EDT 8:53 PM EDT
Civil Twilight 5:37 AM EDT 9:25 PM EDT
Nautical Twilight 4:57 AM EDT 10:04 PM EDT
Astronomical Twilight 4:12 AM EDT 10:49 PM EDT
Moon 9:24 AM EDT (7/11) 10:34 PM EDT (7/11)
Length of Visible Light 15h 48m
Length of Day
14h 44m
Waxing Crescent, 10% of the Moon is Illuminated
Jul 11
Waxing Crescent
Jul 15
First Quarter
Jul 22
Full
Jul 29
Last Quarter
Aug 6
New

Hourly Weather History & Observations

Time (EDT) Temp. Heat Index Dew Point Humidity Pressure Visibility Wind Dir Wind Speed Gust Speed Precip Events Conditions
12:23 AM 64.4 °F - 64.4 °F 100% 29.98 in 10.0 mi West 3.5 mph - 0.01 in   Overcast
12:32 AM 64.4 °F - 64.4 °F 100% 29.98 in 10.0 mi West 3.5 mph - 0.01 in   Overcast
12:53 AM 66.0 °F - 64.0 °F 93% 29.96 in 10.0 mi Calm Calm - 0.01 in   Overcast
1:53 AM 66.0 °F - 64.0 °F 93% 29.96 in 10.0 mi West 4.6 mph - N/A   Overcast
2:09 AM 66.2 °F - 64.4 °F 94% 29.98 in 10.0 mi WSW 4.6 mph - N/A   Overcast
2:53 AM 66.0 °F - 64.9 °F 96% 29.96 in 5.0 mi Calm Calm - N/A   Overcast
3:24 AM 66.2 °F - 64.4 °F 94% 29.98 in 1.8 mi WNW 3.5 mph - N/A   Overcast
3:53 AM 66.0 °F - 64.9 °F 96% 29.97 in 1.5 mi WNW 3.5 mph - N/A   Overcast
4:18 AM 66.2 °F - 64.4 °F 94% 29.99 in 3.0 mi West 3.5 mph - N/A   Overcast
4:53 AM 66.0 °F - 64.9 °F 96% 29.97 in 4.0 mi Calm Calm - N/A   Overcast
5:53 AM 66.0 °F - 64.9 °F 96% 29.98 in 7.0 mi Calm Calm - N/A   Overcast
6:53 AM 66.0 °F - 64.9 °F 96% 30.00 in 8.0 mi North 3.5 mph - N/A   Overcast
7:02 AM 66.2 °F - 64.4 °F 94% 30.01 in 2.0 mi Calm Calm - N/A   Overcast
7:18 AM 66.2 °F - 64.4 °F 94% 30.02 in 2.0 mi North 3.5 mph - N/A   Overcast
7:53 AM 66.9 °F - 64.0 °F 90% 30.01 in 3.0 mi NE 3.5 mph - N/A   Overcast
8:53 AM 68.0 °F - 64.9 °F 90% 30.01 in 4.0 mi Calm Calm - N/A   Overcast
8:57 AM 68.0 °F - 64.4 °F 88% 30.03 in 10.0 mi Variable 3.5 mph - N/A   Mostly Cloudy
9:08 AM 69.8 °F - 64.4 °F 83% 30.03 in 7.0 mi Calm Calm - N/A   Mostly Cloudy
9:53 AM 70.0 °F - 64.9 °F 84% 30.02 in 10.0 mi ENE 4.6 mph - N/A   Overcast
10:04 AM 71.6 °F - 64.4 °F 78% 30.03 in 10.0 mi NE 4.6 mph - N/A   Overcast
10:32 AM 69.8 °F - 64.4 °F 83% 30.03 in 10.0 mi East 4.6 mph - N/A   Overcast
10:39 AM 71.6 °F - 64.4 °F 78% 30.03 in 10.0 mi East 3.5 mph - N/A   Overcast
10:53 AM 72.0 °F - 64.9 °F 78% 30.01 in 10.0 mi East 4.6 mph - N/A   Overcast
11:00 AM 71.6 °F - 64.4 °F 78% 30.02 in 10.0 mi Calm Calm - N/A   Overcast
11:53 AM 73.0 °F - 64.9 °F 76% 30.02 in 9.0 mi Calm Calm - N/A   Overcast
12:53 PM 73.9 °F - 66.9 °F 79% 30.01 in 9.0 mi NW 3.5 mph - N/A   Overcast
1:53 PM 75.9 °F - 66.9 °F 74% 30.00 in 9.0 mi Calm Calm - N/A   Overcast
2:23 PM 77.0 °F - 66.2 °F 69% 30.01 in 10.0 mi Variable 3.5 mph - N/A   Mostly Cloudy
2:39 PM 75.2 °F - 66.2 °F 73% 30.01 in 9.0 mi NW 5.8 mph - N/A   Overcast
2:53 PM 75.9 °F - 68.0 °F 76% 29.99 in 8.0 mi Variable 3.5 mph - N/A   Overcast
3:53 PM 80.1 °F 82.3 °F 66.9 °F 64% 29.97 in 9.0 mi NE 4.6 mph - N/A   Mostly Cloudy
4:20 PM 77.0 °F - 66.2 °F 69% 29.99 in 9.0 mi NNE 6.9 mph - N/A   Mostly Cloudy
4:28 PM 75.2 °F - 66.2 °F 73% 29.99 in 9.0 mi NNE 4.6 mph - N/A   Mostly Cloudy
4:44 PM 75.2 °F - 66.2 °F 73% 29.99 in 10.0 mi NW 10.4 mph 16.1 mph N/A   Overcast
4:51 PM 71.6 °F - 68.0 °F 88% 29.99 in 1.8 mi NW 5.8 mph 16.1 mph 0.05 in Rain Light Rain
4:53 PM 72.0 °F - 68.0 °F 87% 29.98 in 1.5 mi NW 6.9 mph 16.1 mph 0.06 in Rain Heavy Rain
5:02 PM 71.6 °F - 66.2 °F 83% 29.99 in 1.5 mi NNW 6.9 mph - 0.05 in Rain Rain
5:08 PM 73.4 °F - 69.8 °F 88% 29.99 in 3.0 mi NW 5.8 mph - 0.05 in Rain Light Rain
5:53 PM 73.9 °F - 68.0 °F 82% 29.97 in 8.0 mi North 6.9 mph - 0.05 in   Overcast
6:53 PM 72.0 °F - 66.9 °F 84% 29.99 in 10.0 mi NNW 4.6 mph - N/A   Overcast
7:53 PM 70.0 °F - 66.0 °F 87% 29.99 in 10.0 mi NW 4.6 mph - 0.00 in Rain Light Rain
8:53 PM 70.0 °F - 62.1 °F 76% 29.99 in 10.0 mi North 5.8 mph - 0.01 in   Overcast
9:53 PM 69.1 °F - 64.0 °F 84% 30.00 in 10.0 mi North 4.6 mph - 0.00 in   Mostly Cloudy
10:53 PM 68.0 °F - 60.1 °F 76% 30.00 in 10.0 mi North 4.6 mph - N/A   Clear
11:53 PM 64.9 °F - 59.0 °F 81% 30.01 in 10.0 mi NNW 3.5 mph - N/A   Clear